Weather in Wonju

South Korea     37°20′08″N   127°56′57″E
temp.,
°C
wind,
m/s
gust,
m/s
humid.,
%
clouds,
%
prec.,
mm/h
press.,
hPa
HPBL,
m
19 september, sun
sun1900:00+15e21905 0.0 101714
03:00+14e11935 0.0 101811
06:00+14e219693 0.0 101717
09:00+20ese117117 0.0 1018310
12:00+25se124280 0.0 10161284
15:00+25se113983 0.0 10151445
18:00+20sse116935 0.0 101611
21:00+17ese22765 0.0 101717
20 september, mon
mon2000:00+15ese22830 0.0 101634
03:00+15ese229424 0.0 101537
06:00+14ese22967 0.0 101631
09:00+19ese23640 0.0 1015392
12:00+23ese46460 0.0 10131050
15:00+24se464884 0.0 10111347
18:00+19ese3576100 0.0 1011130
21:00+17ese348596 0.0 101179
21 september, tue
tue2100:00+16ese2292100 0.0 101135
03:00+16sse349599 0.6 1008117
06:00+17se2398100 11.9 1007100
09:00+17se2399100 30.8 1008133
12:00+18sw129892 2.9 1007220
15:00+21sw238665 3.8 1006546
18:00+18ssw11940 1.7 100621
21:00+17sse229660 1.7 100722
22 september, wed
wed2200:00+16s229929 0.1 100753
03:00+16sse239840 0.1 100797
06:00+16se2398100 2.6 100677
09:00+16s3599100 11.2 1007226
12:00+18ssw3895100 3.3 1007709
15:00+19wsw379096 4.5 1006821
18:00+16wsw379217 1.9 1008369
21:00+14wsw239872 2.3 1009115
23 september, thu
thu2300:00+15wsw1298100 0.4 1009106
03:00+13wsw119836 0.9 100921
06:00+13w22984 0.3 101128
09:00+15w249179 0.4 1013562
12:00+17w247883 0.1 1014870
15:00+19nw246898 0.2 10141007
18:00+17nnw1183100 0.0 101511
21:00+15s119399 0.0 101711